Погода в Абашеве

Россия / Пензенская область     53°56′02″N   43°20′54″E
темп.,
°C
ветер,
м/с
пор.,
м/с
влажн.,
%
обл.,
%
осадки,
мм/ч
давл.,
гПа
погр.,
м
17 мая, пн
пн1700:00+17в228369 0.0 101426
03:00+16в338672 0.0 101441
06:00+17вюв35845 0.0 1014101
09:00+22ююв45646 0.0 1015360
12:00+26ююв585081 0.0 1015789
15:00+27ююв5846100 0.0 10141721
18:00+23вюв41065100 0.0 1014246
21:00+19юв486099 0.0 1015105
18 мая, вт
вт1800:00+18вюв4965100 0.0 1014115
03:00+16вюв596637 0.0 1014121
06:00+16вюв512685 0.0 1014182
09:00+22вюв613579 0.0 1014468
12:00+26юв69455 0.0 1013748
15:00+27юв610494 0.0 10131196
18:00+24вюв613615 0.0 1012404
21:00+19вюв514680 0.0 1013237
19 мая, ср
ср1900:00+18вюв515623 0.0 1012256
03:00+17вюв617580 0.0 1012288
06:00+17вюв616663 0.0 1012299
09:00+22вюв714595 0.0 1012506
12:00+26вюв712485 0.0 1012938
15:00+28вюв710470 0.0 10112549
18:00+24вюв510625 0.0 1011385
21:00+21в817671 0.0 1011511
20 мая, чт
чт2000:00+17вюв5127499 0.2 1010258
03:00+18вюв817682 0.2 1010544
06:00+17вюв8177628 0.1 1010615
09:00+20юв9126966 0.1 10101176
12:00+21ююв71068100 0.1 10111462
15:00+21ю796379 0.8 10121313
18:00+18ююв51071100 0.0 1012522
21:00+15ююв4985100 0.0 1014263
21 мая, пт
пт2100:00+13ююв37920 0.0 1014168
03:00+12ююв379546 0.0 1015144
06:00+14ююв36887 0.0 1014208
09:00+18ю567111 0.2 1014980
12:00+20ююз6858100 0.4 10141567
15:00+20юз7857100 0.6 10141529
18:00+18ююз51078100 1.4 1014639
21:00+15ююз51287100 2.5 1015347